Time,TemperatureF,DewpointF,PressureIn,WindDirection,WindDirectionDegrees,WindSpeedMPH,WindSpeedGustMPH,Humidity,HourlyPrecipIn,Conditions,Clouds,dailyrainin,SoftwareType,DateUTC
2013-06-12 00:22:00,54.0,46.0,30.11,WNW,290,5.0,-999.0,76,-99.99,,,-99.99,,2013-06-12 07:22:00,
2013-06-12 00:33:00,54.0,46.0,30.11,WNW,290,5.0,-999.0,76,-99.99,,,-99.99,,2013-06-12 07:33:00,
2013-06-12 00:43:00,54.0,46.0,30.11,West,280,6.0,-999.0,76,-99.99,,,-99.99,,2013-06-12 07:43:00,
2013-06-12 00:53:00,54.0,46.0,30.11,West,280,6.0,-999.0,76,-99.99,,,-99.99,,2013-06-12 07:53:00,
2013-06-12 01:22:00,52.0,46.0,30.12,WNW,290,6.0,-999.0,81,-99.99,,,-99.99,,2013-06-12 08:22:00,
2013-06-12 01:33:00,52.0,46.0,30.12,WNW,290,6.0,-999.0,81,-99.99,,,-99.99,,2013-06-12 08:33:00,
2013-06-12 01:43:00,54.0,46.0,30.12,WNW,300,8.0,-999.0,76,-99.99,,,-99.99,,2013-06-12 08:43:00,
2013-06-12 01:53:00,54.0,46.0,30.12,WNW,300,8.0,-999.0,76,-99.99,,,-99.99,,2013-06-12 08:53:00,
2013-06-12 02:11:00,54.0,46.0,30.12,WNW,300,5.0,-999.0,76,-99.99,,,-99.99,,2013-06-12 09:11:00,
2013-06-12 02:22:00,54.0,46.0,30.12,WNW,300,5.0,-999.0,76,-99.99,,,-99.99,,2013-06-12 09:22:00,
2013-06-12 02:33:00,54.0,46.0,30.12,WNW,300,5.0,-999.0,76,-99.99,,,-99.99,,2013-06-12 09:33:00,
2013-06-12 02:53:00,52.0,46.0,30.12,WNW,300,7.0,-999.0,81,-99.99,,,-99.99,,2013-06-12 09:53:00,
2013-06-12 03:23:00,52.0,46.0,30.11,NW,310,7.0,-999.0,81,-99.99,,,-99.99,,2013-06-12 10:23:00,
2013-06-12 03:33:00,52.0,46.0,30.11,NW,310,7.0,-999.0,81,-99.99,,,-99.99,,2013-06-12 10:33:00,
2013-06-12 03:43:00,52.0,46.0,30.11,WNW,300,7.0,-999.0,81,-99.99,,,-99.99,,2013-06-12 10:43:00,
2013-06-12 03:53:00,52.0,46.0,30.11,WNW,300,7.0,-999.0,81,-99.99,,,-99.99,,2013-06-12 10:53:00,
2013-06-12 04:24:00,50.0,46.0,30.12,WNW,290,5.0,-999.0,87,-99.99,,,-99.99,,2013-06-12 11:24:00,
2013-06-12 04:33:00,50.0,46.0,30.12,WNW,290,5.0,-999.0,87,-99.99,,,-99.99,,2013-06-12 11:33:00,
2013-06-12 04:43:00,48.0,45.0,30.12,SSW,200,6.0,-999.0,87,-99.99,,,-99.99,,2013-06-12 11:43:00,
2013-06-12 04:53:00,48.0,45.0,30.12,SSW,200,6.0,-999.0,87,-99.99,,,-99.99,,2013-06-12 11:53:00,
2013-06-12 05:23:00,46.0,43.0,30.13,North,0,0.0,-999.0,87,-99.99,,,-99.99,,2013-06-12 12:23:00,
2013-06-12 05:33:00,46.0,43.0,30.13,North,0,0.0,-999.0,87,-99.99,,,-99.99,,2013-06-12 12:33:00,
2013-06-12 05:42:00,46.0,43.0,30.13,South,180,3.0,-999.0,87,-99.99,,,-99.99,,2013-06-12 12:42:00,
2013-06-12 05:53:00,46.0,43.0,30.13,South,180,3.0,-999.0,87,-99.99,,,-99.99,,2013-06-12 12:53:00,
2013-06-12 06:22:00,46.0,43.0,30.13,North,0,0.0,-999.0,87,-99.99,,,-99.99,,2013-06-12 13:22:00,
2013-06-12 06:32:00,46.0,43.0,30.13,North,0,0.0,-999.0,87,-99.99,,,-99.99,,2013-06-12 13:32:00,
2013-06-12 06:43:00,48.0,45.0,30.13,North,0,0.0,-999.0,87,-99.99,,,-99.99,,2013-06-12 13:43:00,
2013-06-12 06:53:00,48.0,45.0,30.13,North,0,0.0,-999.0,87,-99.99,,,-99.99,,2013-06-12 13:53:00,
2013-06-12 07:33:00,50.0,45.0,30.13,North,0,0.0,-999.0,81,-99.99,,,-99.99,,2013-06-12 14:33:00,
2013-06-12 07:53:00,50.0,45.0,30.14,North,0,0.0,-999.0,81,-99.99,,,-99.99,,2013-06-12 14:53:00,
2013-06-12 08:12:00,55.0,46.0,30.13,North,0,0.0,-999.0,71,-99.99,,,-99.99,,2013-06-12 15:12:00,
2013-06-12 08:23:00,55.0,46.0,30.13,North,0,0.0,-999.0,71,-99.99,,,-99.99,,2013-06-12 15:23:00,
2013-06-12 08:33:00,55.0,46.0,30.13,North,0,0.0,-999.0,71,-99.99,,,-99.99,,2013-06-12 15:33:00,
2013-06-12 08:43:00,55.0,46.0,30.13,North,0,0.0,-999.0,71,-99.99,,,-99.99,,2013-06-12 15:43:00,
2013-06-12 08:52:00,55.0,46.0,30.13,North,0,0.0,-999.0,71,-99.99,,,-99.99,,2013-06-12 15:52:00,
2013-06-12 09:32:00,59.0,45.0,30.12,NW,310,9.0,-999.0,58,-99.99,,,-99.99,,2013-06-12 16:32:00,
2013-06-12 09:43:00,57.0,45.0,30.13,WNW,290,9.0,-999.0,62,-99.99,,,-99.99,,2013-06-12 16:43:00,
2013-06-12 09:52:00,57.0,45.0,30.13,WNW,290,9.0,-999.0,62,-99.99,,,-99.99,,2013-06-12 16:52:00,
2013-06-12 10:22:00,59.0,43.0,30.13,WNW,290,9.0,17.0,54,-99.99,,,-99.99,,2013-06-12 17:22:00,
2013-06-12 10:33:00,59.0,43.0,30.13,WNW,290,9.0,17.0,54,-99.99,,,-99.99,,2013-06-12 17:33:00,
2013-06-12 10:42:00,59.0,43.0,30.13,WNW,300,9.0,-999.0,54,-99.99,,,-99.99,,2013-06-12 17:42:00,
2013-06-12 10:52:00,59.0,43.0,30.13,WNW,300,9.0,-999.0,54,-99.99,,,-99.99,,2013-06-12 17:52:00,
2013-06-12 11:22:00,59.0,45.0,30.13,NW,310,9.0,-999.0,58,-99.99,,,-99.99,,2013-06-12 18:22:00,
2013-06-12 11:32:00,59.0,45.0,30.13,NW,310,9.0,-999.0,58,-99.99,,,-99.99,,2013-06-12 18:32:00,
2013-06-12 11:43:00,59.0,43.0,30.13,WNW,290,7.0,-999.0,54,-99.99,,,-99.99,,2013-06-12 18:43:00,
2013-06-12 11:53:00,59.0,43.0,30.13,WNW,290,7.0,-999.0,54,-99.99,,,-99.99,,2013-06-12 18:53:00,
2013-06-12 12:22:00,61.0,41.0,30.13,WNW,290,10.0,16.0,48,-99.99,,,-99.99,,2013-06-12 19:22:00,
2013-06-12 12:32:00,61.0,41.0,30.13,WNW,290,10.0,16.0,48,-99.99,,,-99.99,,2013-06-12 19:32:00,
2013-06-12 12:42:00,61.0,41.0,30.13,WNW,300,8.0,-999.0,48,-99.99,,,-99.99,,2013-06-12 19:42:00,
2013-06-12 12:52:00,61.0,41.0,30.13,WNW,300,8.0,-999.0,48,-99.99,,,-99.99,,2013-06-12 19:52:00,
2013-06-12 13:32:00,64.0,41.0,30.12,WNW,290,6.0,-999.0,42,-99.99,,,-99.99,,2013-06-12 20:32:00,
2013-06-12 13:54:00,64.0,41.0,30.12,WNW,300,12.0,21.0,42,-99.99,,,-99.99,,2013-06-12 20:54:00,
2013-06-12 14:11:00,64.0,41.0,30.12,WNW,300,13.0,20.0,42,-99.99,,,-99.99,,2013-06-12 21:11:00,
2013-06-12 14:21:00,64.0,41.0,30.12,WNW,300,13.0,20.0,42,-99.99,,,-99.99,,2013-06-12 21:21:00,
2013-06-12 14:33:00,64.0,41.0,30.12,WNW,300,13.0,20.0,42,-99.99,,,-99.99,,2013-06-12 21:33:00,
2013-06-12 14:43:00,64.0,39.0,30.11,WNW,290,12.0,18.0,39,-99.99,,,-99.99,,2013-06-12 21:43:00,
2013-06-12 14:52:00,64.0,39.0,30.11,WNW,290,12.0,18.0,39,-99.99,,,-99.99,,2013-06-12 21:52:00,
2013-06-12 15:52:00,66.0,41.0,30.11,WNW,290,14.0,21.0,39,-99.99,,,-99.99,,2013-06-12 22:52:00,
2013-06-12 16:12:00,66.0,41.0,30.10,WNW,300,15.0,23.0,39,-99.99,,,-99.99,,2013-06-12 23:12:00,
2013-06-12 16:22:00,66.0,41.0,30.10,WNW,300,15.0,23.0,39,-99.99,,,-99.99,,2013-06-12 23:22:00,
2013-06-12 16:32:00,66.0,41.0,30.10,WNW,300,15.0,23.0,39,-99.99,,,-99.99,,2013-06-12 23:32:00,
2013-06-12 16:52:00,66.0,41.0,30.10,WNW,290,15.0,24.0,39,-99.99,,,-99.99,,2013-06-12 23:52:00,
2013-06-12 17:11:00,66.0,41.0,30.11,WNW,300,12.0,22.0,39,-99.99,,,-99.99,,2013-06-13 00:11:00,
2013-06-12 17:22:00,66.0,41.0,30.11,WNW,300,12.0,22.0,39,-99.99,,,-99.99,,2013-06-13 00:22:00,
2013-06-12 17:32:00,66.0,41.0,30.11,WNW,300,12.0,22.0,39,-99.99,,,-99.99,,2013-06-13 00:32:00,
2013-06-12 17:42:00,64.0,41.0,30.11,WNW,300,17.0,28.0,42,-99.99,,,-99.99,,2013-06-13 00:42:00,
2013-06-12 17:52:00,64.0,41.0,30.11,WNW,300,17.0,28.0,42,-99.99,,,-99.99,,2013-06-13 00:52:00,
2013-06-12 18:22:00,63.0,43.0,30.11,WNW,300,13.0,21.0,48,-99.99,,,-99.99,,2013-06-13 01:22:00,
2013-06-12 18:32:00,63.0,43.0,30.11,WNW,300,13.0,21.0,48,-99.99,,,-99.99,,2013-06-13 01:32:00,
2013-06-12 18:43:00,63.0,43.0,30.11,WNW,290,10.0,22.0,48,-99.99,,,-99.99,,2013-06-13 01:43:00,
2013-06-12 18:53:00,63.0,43.0,30.11,WNW,290,10.0,22.0,48,-99.99,,,-99.99,,2013-06-13 01:53:00,
2013-06-12 19:11:00,63.0,43.0,30.11,WNW,300,14.0,20.0,48,-99.99,,,-99.99,,2013-06-13 02:11:00,
2013-06-12 19:22:00,63.0,43.0,30.11,WNW,300,14.0,20.0,48,-99.99,,,-99.99,,2013-06-13 02:22:00,
2013-06-12 19:33:00,63.0,43.0,30.11,WNW,300,14.0,20.0,48,-99.99,,,-99.99,,2013-06-13 02:33:00,
2013-06-12 19:42:00,59.0,43.0,30.12,WNW,300,10.0,21.0,54,-99.99,,,-99.99,,2013-06-13 02:42:00,
2013-06-12 19:52:00,59.0,43.0,30.12,WNW,300,10.0,21.0,54,-99.99,,,-99.99,,2013-06-13 02:52:00,
2013-06-12 20:11:00,59.0,45.0,30.12,WNW,300,13.0,21.0,58,-99.99,,,-99.99,,2013-06-13 03:11:00,
2013-06-12 20:22:00,59.0,45.0,30.12,WNW,300,13.0,21.0,58,-99.99,,,-99.99,,2013-06-13 03:22:00,
2013-06-12 20:33:00,59.0,45.0,30.12,WNW,300,13.0,21.0,58,-99.99,,,-99.99,,2013-06-13 03:33:00,
2013-06-12 20:42:00,57.0,45.0,30.13,WNW,300,9.0,-999.0,62,-99.99,,,-99.99,,2013-06-13 03:42:00,
2013-06-12 20:52:00,57.0,45.0,30.13,WNW,300,9.0,-999.0,62,-99.99,,,-99.99,,2013-06-13 03:52:00,
2013-06-12 21:22:00,57.0,45.0,30.13,WNW,290,7.0,-999.0,62,-99.99,,,-99.99,,2013-06-13 04:22:00,
2013-06-12 21:32:00,57.0,45.0,30.13,WNW,290,7.0,-999.0,62,-99.99,,,-99.99,,2013-06-13 04:32:00,
2013-06-12 21:43:00,55.0,45.0,30.14,WNW,300,7.0,-999.0,66,-99.99,,,-99.99,,2013-06-13 04:43:00,
2013-06-12 21:53:00,55.0,45.0,30.14,WNW,300,7.0,-999.0,66,-99.99,,,-99.99,,2013-06-13 04:53:00,
2013-06-12 22:02:00,55.0,45.0,30.14,WNW,300,7.0,-999.0,66,-99.99,,,-99.99,,2013-06-13 05:02:00,
2013-06-12 22:11:00,54.0,46.0,30.14,WNW,290,6.0,-999.0,76,-99.99,,,-99.99,,2013-06-13 05:11:00,
2013-06-12 22:23:00,54.0,46.0,30.14,WNW,290,6.0,-999.0,76,-99.99,,,-99.99,,2013-06-13 05:23:00,
2013-06-12 22:33:00,54.0,46.0,30.14,WNW,290,6.0,-999.0,76,-99.99,,,-99.99,,2013-06-13 05:33:00,
2013-06-12 22:42:00,52.0,45.0,30.14,NW,310,3.0,-999.0,76,-99.99,,,-99.99,,2013-06-13 05:42:00,
2013-06-12 22:53:00,52.0,45.0,30.14,NW,310,3.0,-999.0,76,-99.99,,,-99.99,,2013-06-13 05:53:00,
2013-06-12 23:22:00,54.0,45.0,30.14,WNW,290,3.0,-999.0,71,-99.99,,,-99.99,,2013-06-13 06:22:00,
2013-06-12 23:33:00,54.0,45.0,30.14,WNW,290,3.0,-999.0,71,-99.99,,,-99.99,,2013-06-13 06:33:00,
2013-06-12 23:44:00,54.0,46.0,30.14,NW,310,8.0,-999.0,76,-99.99,,,-99.99,,2013-06-13 06:44:00,
2013-06-12 23:52:00,54.0,46.0,30.14,NW,310,8.0,-999.0,76,-99.99,,,-99.99,,2013-06-13 06:52:00,